South Pass, WY

4:58 AM MDT on March 30, 2017 (GMT -0600)
South Pass

Weather History for KFWZ - May, 2013

Change the Weather History Date:

Tuesday, May 14, 2013

  Actual Average (KLND) Record (KLND)
Temperature  
Mean Temperature 60 °F -  
Max Temperature 68 °F 67 °F 85 °F (1987)
Min Temperature 53 °F 39 °F 24 °F (1907)
Degree Days  
Heating Degree Days 4    
Growing Degree Days 10 (Base 50)    
Moisture  
Dew Point 24 °F    
Average Humidity 25    
Maximum Humidity 35    
Minimum Humidity 18    
Precipitation  
Precipitation 0.00 in - - ()
Sea Level Pressure  
Sea Level Pressure 30.12 in    
Wind  
Wind Speed 15 mph (West)    
Max Wind Speed 28 mph    
Max Gust Speed 38 mph    
Visibility 10 miles    
Events      
Averages and records for this station are not official NWS values.
T = Trace of Precipitation, MM = Missing Value Source: NWS Daily Summary

Daily Weather History Graph

Daily Weather History Graph

Search for Another Location

Airport or City:

Trip Planner

Search our weather history database for the weather conditions in past years. The results will help you decide how hot, cold, wet, or windy it might be!

Date:

Astronomy

May. 14, 2013 Rise Set
Actual Time 5:53 AM MDT 8:29 PM MDT
Civil Twilight 5:21 AM MDT 9:01 PM MDT
Nautical Twilight 4:41 AM MDT 9:42 PM MDT
Astronomical Twilight 3:56 AM MDT 10:28 PM MDT
Moon 9:36 AM MDT (5/14) No Moon Set
Length of Visible Light 15h 40m
Length of Day
14h 35m
Waxing Crescent, 19% of the Moon is Illuminated
May 14
Waxing Crescent
May 17
First Quarter
May 24
Full
May 31
Last Quarter
Jun 8
New

Hourly Weather History & Observations

Time (MDT) Temp. Dew Point Humidity Pressure Visibility Wind Dir Wind Speed Gust Speed Precip Events Conditions
12:15 AM 59.0 °F 23.0 °F 25% 30.15 in 10.0 mi West 15.0 mph 21.9 mph N/A   Clear
12:35 AM 59.0 °F 23.0 °F 25% 30.13 in 10.0 mi WSW 21.9 mph 27.6 mph N/A   Clear
12:55 AM 59.0 °F 23.0 °F 25% 30.11 in 10.0 mi WSW 26.5 mph 34.5 mph N/A   Clear
1:15 AM 59.0 °F 23.0 °F 25% 30.10 in 10.0 mi WSW 27.6 mph 34.5 mph N/A   Clear
1:35 AM 59.0 °F 23.0 °F 25% 30.10 in 10.0 mi WSW 24.2 mph 34.5 mph N/A   Clear
1:55 AM 59.0 °F 23.0 °F 25% 30.09 in 10.0 mi West 23.0 mph 31.1 mph N/A   Clear
2:15 AM 59.0 °F 23.0 °F 25% 30.09 in 10.0 mi West 23.0 mph 34.5 mph N/A   Clear
2:35 AM 59.0 °F 23.0 °F 25% 30.09 in 10.0 mi West 21.9 mph 31.1 mph N/A   Clear
2:55 AM 59.0 °F 23.0 °F 25% 30.10 in 10.0 mi West 19.6 mph 28.8 mph N/A   Clear
3:15 AM 59.0 °F 24.8 °F 27% 30.11 in 10.0 mi West 16.1 mph 25.3 mph N/A   Clear
3:35 AM 59.0 °F 24.8 °F 27% 30.12 in 10.0 mi West 13.8 mph 23.0 mph N/A   Clear
3:55 AM 59.0 °F 26.6 °F 29% 30.12 in 10.0 mi West 13.8 mph 18.4 mph N/A   Clear
4:15 AM 59.0 °F 26.6 °F 29% 30.13 in 10.0 mi WNW 11.5 mph 17.3 mph N/A   Clear
4:35 AM 57.2 °F 26.6 °F 31% 30.13 in 10.0 mi WNW 11.5 mph 18.4 mph N/A   Clear
4:55 AM 57.2 °F 24.8 °F 29% 30.13 in 10.0 mi WNW 12.7 mph 17.3 mph N/A   Clear
5:15 AM 57.2 °F 23.0 °F 27% 30.13 in 10.0 mi WNW 12.7 mph - N/A   Clear
5:35 AM 55.4 °F 23.0 °F 29% 30.14 in 10.0 mi NW 10.4 mph 17.3 mph N/A   Clear
5:55 AM 55.4 °F 21.2 °F 26% 30.13 in 10.0 mi NW 10.4 mph - N/A   Clear
6:15 AM 55.4 °F 21.2 °F 26% 30.14 in 10.0 mi WNW 9.2 mph - N/A   Clear
6:35 AM 55.4 °F 21.2 °F 26% 30.15 in 10.0 mi NW 6.9 mph - N/A   Clear
6:55 AM 57.2 °F 21.2 °F 25% 30.15 in 10.0 mi WNW 8.1 mph - N/A   Clear
7:15 AM 59.0 °F 21.2 °F 23% 30.16 in 10.0 mi West 6.9 mph - N/A   Scattered Clouds
7:35 AM 59.0 °F 19.4 °F 22% 30.16 in 10.0 mi WNW 10.4 mph - N/A   Clear
7:55 AM 60.8 °F 19.4 °F 20% 30.16 in 10.0 mi West 9.2 mph - N/A   Clear
8:15 AM 60.8 °F 19.4 °F 20% 30.17 in 10.0 mi WNW 10.4 mph - N/A   Clear
8:35 AM 60.8 °F 21.2 °F 22% 30.16 in 10.0 mi West 8.1 mph 16.1 mph N/A   Clear
8:55 AM 60.8 °F 21.2 °F 22% 30.17 in 10.0 mi West 9.2 mph 19.6 mph N/A   Clear
9:15 AM 62.6 °F 21.2 °F 20% 30.17 in 10.0 mi West 8.1 mph 17.3 mph N/A   Scattered Clouds
9:35 AM 62.6 °F 23.0 °F 22% 30.17 in 10.0 mi SW 8.1 mph - N/A   Clear
9:55 AM 62.6 °F 26.6 °F 26% 30.17 in 10.0 mi West 9.2 mph - N/A   Clear
10:15 AM 62.6 °F 26.6 °F 26% 30.17 in 10.0 mi SW 10.4 mph 16.1 mph N/A   Clear
10:35 AM 62.6 °F 19.4 °F 19% 30.17 in 10.0 mi West 13.8 mph 20.7 mph N/A   Clear
10:55 AM 62.6 °F 21.2 °F 20% 30.17 in 10.0 mi West 13.8 mph 21.9 mph N/A   Clear
11:15 AM 64.4 °F 23.0 °F 21% 30.17 in 10.0 mi West 11.5 mph 19.6 mph N/A   Clear
11:35 AM 64.4 °F 23.0 °F 21% 30.17 in 10.0 mi West 6.9 mph 20.7 mph N/A   Clear
11:55 AM 64.4 °F 24.8 °F 22% 30.17 in 10.0 mi West 16.1 mph 21.9 mph N/A   Clear
12:15 PM 64.4 °F 26.6 °F 24% 30.16 in 10.0 mi WSW 15.0 mph 29.9 mph N/A   Clear
12:35 PM 64.4 °F 24.8 °F 22% 30.16 in 10.0 mi West 13.8 mph 32.2 mph N/A   Scattered Clouds
12:55 PM 68.0 °F 26.6 °F 21% 30.15 in 10.0 mi West 12.7 mph 31.1 mph N/A   Scattered Clouds
1:15 PM 66.2 °F 26.6 °F 23% 30.15 in 10.0 mi WSW 15.0 mph 24.2 mph N/A   Scattered Clouds
1:35 PM 64.4 °F 26.6 °F 24% 30.14 in 10.0 mi West 13.8 mph 26.5 mph N/A   Mostly Cloudy
1:55 PM 66.2 °F 24.8 °F 21% 30.14 in 10.0 mi WSW 16.1 mph 23.0 mph N/A   Mostly Cloudy
2:15 PM 64.4 °F 26.6 °F 24% 30.13 in 10.0 mi West 15.0 mph 24.2 mph N/A   Mostly Cloudy
2:35 PM 68.0 °F 26.6 °F 21% 30.13 in 10.0 mi West 16.1 mph 24.2 mph N/A   Scattered Clouds
2:55 PM 66.2 °F 24.8 °F 21% 30.12 in 10.0 mi WSW 20.7 mph 27.6 mph N/A   Scattered Clouds
3:15 PM 68.0 °F 24.8 °F 20% 30.12 in 10.0 mi West 17.3 mph 24.2 mph N/A   Mostly Cloudy
3:35 PM 64.4 °F 28.4 °F 26% 30.11 in 10.0 mi WNW 19.6 mph 38.0 mph N/A   Scattered Clouds
3:55 PM 68.0 °F 26.6 °F 21% 30.11 in 10.0 mi West 15.0 mph 18.4 mph N/A   Scattered Clouds
4:15 PM 66.2 °F 26.6 °F 23% 30.10 in 10.0 mi West 11.5 mph 31.1 mph N/A   Scattered Clouds
4:35 PM 66.2 °F 24.8 °F 21% 30.09 in 10.0 mi West 13.8 mph 26.5 mph N/A   Scattered Clouds
4:55 PM 68.0 °F 26.6 °F 21% 30.09 in 10.0 mi WNW 15.0 mph - N/A   Clear
5:15 PM 68.0 °F 24.8 °F 20% 30.09 in 10.0 mi West 6.9 mph 23.0 mph N/A   Scattered Clouds
5:35 PM 68.0 °F 23.0 °F 18% 30.09 in 10.0 mi West 12.7 mph 26.5 mph N/A   Mostly Cloudy
5:55 PM 68.0 °F 23.0 °F 18% 30.09 in 10.0 mi West 15.0 mph 18.4 mph N/A   Scattered Clouds
6:15 PM 64.4 °F 23.0 °F 21% 30.09 in 10.0 mi West 11.5 mph 17.3 mph N/A   Scattered Clouds
6:35 PM 66.2 °F 23.0 °F 19% 30.08 in 10.0 mi West 15.0 mph 21.9 mph N/A   Scattered Clouds
6:55 PM 64.4 °F 23.0 °F 21% 30.08 in 10.0 mi WSW 15.0 mph 19.6 mph N/A   Clear
7:15 PM 64.4 °F 23.0 °F 21% 30.08 in 10.0 mi West 10.4 mph 19.6 mph N/A   Clear
7:35 PM 64.4 °F 26.6 °F 24% 30.08 in 10.0 mi West 9.2 mph - N/A   Clear
7:55 PM 62.6 °F 26.6 °F 26% 30.08 in 10.0 mi West 11.5 mph 16.1 mph N/A   Clear
8:15 PM 60.8 °F 26.6 °F 27% 30.09 in 10.0 mi West 4.6 mph - N/A   Clear
8:35 PM 60.8 °F 26.6 °F 27% 30.09 in 10.0 mi West 6.9 mph - N/A   Clear
8:55 PM 59.0 °F 26.6 °F 29% 30.09 in 10.0 mi WNW 8.1 mph - N/A   Clear
9:15 PM 59.0 °F 26.6 °F 29% 30.09 in 10.0 mi WNW 9.2 mph - N/A   Clear
9:35 PM 59.0 °F 26.6 °F 29% 30.09 in 10.0 mi NW 9.2 mph - N/A   Clear
9:55 PM 55.4 °F 26.6 °F 33% 30.10 in 10.0 mi NW 9.2 mph - N/A   Clear
10:15 PM 53.6 °F 26.6 °F 35% 30.10 in 10.0 mi NW 10.4 mph - N/A   Clear
10:35 PM 53.6 °F 26.6 °F 35% 30.10 in 10.0 mi NW 10.4 mph - N/A   Clear
10:55 PM 55.4 °F 26.6 °F 33% 30.10 in 10.0 mi NW 10.4 mph - N/A   Clear
11:15 PM 53.6 °F 26.6 °F 35% 30.10 in 10.0 mi NW 10.4 mph - N/A   Clear
11:35 PM 53.6 °F 26.6 °F 35% 30.10 in 10.0 mi NW 8.1 mph - N/A   Clear
11:55 PM 53.6 °F 24.8 °F 33% 30.10 in 10.0 mi WNW 9.2 mph - N/A   Clear